Toronto Pearson, Ontario

8:10 PM EST on November 11, 2019 (GMT -0500)
Toronto-Pearson International

Weather History for CYYZ - June, 2019

Change the Weather History Date:

Saturday, June 1, 2019

  Actual Average Record
Temperature  
Mean Temperature 60 °F -  
Max Temperature 69 °F 74 °F 82 °F (2002)
Min Temperature 52 °F 52 °F 42 °F (2003)
Degree Days  
Heating Degree Days 4    
Growing Degree Days 10 (Base 50)    
Moisture  
Dew Point 52 °F    
Average Humidity 72    
Maximum Humidity 94    
Minimum Humidity 55    
Precipitation  
Precipitation 0.04 in 0.09 in - ()
Sea Level Pressure  
Sea Level Pressure 29.74 in    
Wind  
Wind Speed 7 mph ()    
Max Wind Speed 20 mph    
Max Gust Speed 24 mph    
Visibility 13.6 miles    
Events Rain    
Averages and records for this station are not official NWS values.
T = Trace of Precipitation, MM = Missing Value Source: Averaged Metar Reports

Daily Weather History Graph

Daily Weather History Graph

Search for Another Location

Airport or City:

Astronomy

Jun. 01, 2019 Rise Set
Actual Time 5:39 AM EDT 8:53 PM EDT
Civil Twilight 5:04 AM EDT 9:28 PM EDT
Nautical Twilight 4:19 AM EDT 10:13 PM EDT
Astronomical Twilight 3:24 AM EDT 11:09 PM EDT
Moon 4:49 AM EDT (6/1) 7:00 PM EDT (6/1)
Length of Visible Light 16h 23m
Length of Day
15h 13m
Waning Crescent, 4% of the Moon is Illuminated
Jun 1
Waning Crescent
Jun 3
New
Jun 10
First Quarter
Jun 17
Full
Jun 25
Last Quarter

Hourly Weather History & Observations

Time (EDT) Temp. Dew Point Humidity Pressure Visibility Wind Dir Wind Speed Gust Speed Precip Events Conditions
12:00 AM 55.4 °F 44.6 °F 67% 29.77 in 15.0 mi ESE 5.8 mph - N/A   Partly Cloudy
1:00 AM 55.4 °F 44.6 °F 67% 29.75 in 15.0 mi SSE 4.6 mph - N/A   Mostly Cloudy
2:00 AM 55 °F 45 °F 60% 29.75 in 15 mi East 5.8 mph - -   Overcast
2:00 AM 55.4 °F 44.6 °F 67% 29.75 in 15.0 mi East 3.5 mph - N/A   Overcast
3:00 AM 55.4 °F 44.6 °F 67% 29.75 in 15.0 mi SE 4.6 mph - N/A   Overcast
4:00 AM 55.4 °F 46.4 °F 72% 29.74 in 15.0 mi East 8.1 mph - N/A   Mostly Cloudy
5:00 AM 53 °F 46 °F 71% 29.74 in 15 mi SSE 9.2 mph - -   Overcast
5:00 AM 53.6 °F 46.4 °F 77% 29.74 in 15.0 mi SSE 10.4 mph - N/A   Overcast
6:00 AM 53.6 °F 46.4 °F 77% 29.75 in 15.0 mi Variable 2.3 mph - N/A   Mostly Cloudy
7:00 AM 55.4 °F 48.2 °F 77% 29.76 in 15.0 mi South 4.6 mph - N/A   Mostly Cloudy
8:00 AM 56 °F 47 °F 64% 29.77 in 15 mi East 11.5 mph - -   Scattered Clouds
8:00 AM 57.2 °F 48.2 °F 72% 29.77 in 15.0 mi ENE 11.5 mph - N/A   Mostly Cloudy
9:00 AM 59.0 °F 48.2 °F 67% 29.77 in 15.0 mi Variable 5.8 mph - N/A   Mostly Cloudy
10:00 AM 62.6 °F 53.6 °F 72% 29.78 in 15.0 mi SSE 9.2 mph - N/A   Mostly Cloudy
11:00 AM 65 °F 54 °F 59% 29.78 in 15 mi East 6.9 mph - -  
11:00 AM 64.4 °F 53.6 °F 68% 29.78 in 15.0 mi Variable 4.6 mph - N/A   Mostly Cloudy
12:00 PM 68.0 °F 53.6 °F 60% 29.77 in 15.0 mi SSE 12.7 mph 20.7 mph N/A   Mostly Cloudy
1:00 PM 59.0 °F 50.0 °F 72% 29.78 in 15.0 mi SE 10.4 mph 19.6 mph N/A   Mostly Cloudy
2:00 PM 62 °F 54 °F 66% 29.76 in 15 mi SSE 11.5 mph - -   Scattered Clouds
2:00 PM 62.6 °F 53.6 °F 72% 29.76 in 15.0 mi SSE 11.5 mph 20.7 mph N/A   Mostly Cloudy
3:00 PM 64.4 °F 51.8 °F 64% 29.73 in 15.0 mi SSE 13.8 mph 19.6 mph N/A   Mostly Cloudy
4:00 PM 66.2 °F 53.6 °F 64% 29.70 in 15.0 mi SSE 9.2 mph 18.4 mph N/A   Mostly Cloudy
5:00 PM 67 °F 55 °F 55% 29.71 in 12 mi South 13.8 mph - -  
5:00 PM 66.2 °F 55.4 °F 68% 29.71 in 12.0 mi South 12.7 mph 18.4 mph N/A   Mostly Cloudy
6:00 PM 59.0 °F 50.0 °F 72% 29.73 in 12.0 mi SSE 19.6 mph - N/A   Overcast
6:20 PM 59.0 °F 50.0 °F 72% 29.73 in 10.0 mi SSE 15.0 mph 23.0 mph N/A Rain Light Rain Showers
7:00 PM 64.4 °F 60.8 °F 88% 29.72 in 10.0 mi SSW 6.9 mph 21.9 mph N/A Rain Light Rain Showers
8:00 PM 65 °F 59 °F 76% 29.69 in 10 mi NNE 5.8 mph - - Rain Light Rain Showers
8:00 PM 64.4 °F 59.0 °F 83% 29.69 in 10.0 mi Variable 4.6 mph - N/A Rain Light Rain Showers
8:18 PM 64.4 °F 59.0 °F 83% 29.70 in 10.0 mi Variable 3.5 mph - N/A   Overcast
9:00 PM 62.6 °F 59.0 °F 88% 29.70 in 10.0 mi Variable 5.8 mph - N/A   Overcast
10:00 PM 60.8 °F 59.0 °F 94% 29.72 in 12.0 mi South 9.2 mph - N/A   Overcast
11:00 PM 60.8 °F 59.0 °F 94% 29.74 in 12.0 mi SSW 15.0 mph 24.2 mph N/A   Overcast